"Pseudo-MPEC" for ZL245A8

Created 2018 Jun 17 14:19:02 UT using Find_Orb

Click here for an explanation of pseudo-MPECs

 
 Astrometry: 
     ZL245A8  C2018 05 19!IAstrometrygcrM=iu_15-_fZEk)k\#trc1xx(QSQp#Ehm@MXU4F51
     ZL245A8  C2018 05 19uot@`#fC`oDKmvSxO_pb;h/\;hkO`gD4a_7M\rgQ9ylFwu+HuHccF51
     ZL245A8  C2018 05 191yXyE.92,MMk?U'7BY-5Xy\/tAWJiug!tFT?TH+`OY,nh3+0FlXkF51
     ZL245A8  C2018 05 19\B@WyDGN1IW0BeXNba2VOy9b9X.O(-TL.(]0+;tNZ-`o=L%lLu_LF51
     ZL245A8  C2018 06 12.35466 16 42 13.99 +59 11 56.7          20.6 GUNEOCP703
     ZL245A8  C2018 06 12.35996 16 42 12.81 +59 11 48.0          20.3 GUNEOCP703
     ZL245A8  C2018 06 12.36525 16 42 11.60 +59 11 39.3          20.3 GUNEOCP703
     ZL245A8  C2018 06 12.37055 16 42 10.58 +59 11 30.4          20.6 GUNEOCP703
     ZL245A8  C2018 06 12.44327 16 41 56.37 +59 09 30.5          19.7 GUNEOCPI52
     ZL245A8  C2018 06 12.44403 16 41 56.22 +59 09 29.3          19.6 GUNEOCPI52
     ZL245A8  C2018 06 12.44742 16 41 55.55 +59 09 23.3          19.6 GUNEOCPI52
     ZL245A8  C2018 06 12.44818 16 41 55.40 +59 09 22.1          19.6 GUNEOCPI52
     ZL245A8  C2018 06 12^y^l(9tiGFwO]a5R\c3C?s8\F=(L9gRQ@jCI)q8P=jZQoSg2@0Q9J04
     ZL245A8  C2018 06 12g9to?g\KW;E2rPObd)n365EVPJ==vf]=.[Y$v9J.fT7NuvQ1fPB@J04
     ZL245A8  C2018 06 12FBwcs=6?cLSgHlk1XEHa=C7n/WD+w$+t!HGI78fck-f7ywJxyewdJ04
     ZL245A8 KC2018 06 13.03150 16 40 07.10 +58 53 26.6                VNEOCPJ95
     ZL245A8 KC2018 06 13.03763 16 40 05.78 +58 53 15.7                VNEOCPJ95
     ZL245A8 IC2018 06 13,Zck1gv+CDR;GjSgSxu?jNp:Lp%Bm[-SoJx'7t24r?Pt/]a6\60,L01
     ZL245A8 KC2018 06 13.04407 16 40 04.56 +58 53 05.2          20.1 GVNEOCPJ95
     ZL245A8 KC2018 06 13@7VyYIZ@VPjT1\(CJ!bTOK86hNM$.7dNNA'bDa\Uk'/V=lTgGpBvL01
     ZL245A8 KC2018 06 13.24081 16 39 28.75 +58 47 34.7          20.1 RqNEOCPG58
     ZL245A8 KC2018 06 13.24630 16 39 27.68 +58 47 25.3          19.8 RqNEOCPG58
     ZL245A8 KC2018 06 13.25166 16 39 26.63 +58 47 15.9          19.5 RqNEOCPG58
     ZL245A8  C2018 06 13.27087 16 39 22.08 +58 46 45.5          19.1 GUNEOCPI52
     ZL245A8  C2018 06 13.27309 16 39 21.62 +58 46 42.2          19.5 GUNEOCPI52
     ZL245A8  C2018 06 13.27570 16 39 21.09 +58 46 37.7          19.4 GUNEOCPI52
     ZL245A8  C2018 06 13.27797 16 39 20.67 +58 46 33.7                UNEOCPI52
     ZL245A8 KC2018 06 13B4209hJQRRYMYArtXM@_6v(*CO!e%CS8-oQus\'KU^]'3o.-TD]VL01
     ZL245A8 KC2018 06 13'hVi?62MNsBYnpOuX^4oeGes.srk*yY^/WE4*M-'-Uw#_r5C,^c-L01
     ZL245A8 KC2018 06 13#\;wTa'-te=wBbe'6M.w(+TAWieM(%Qdu(s\/ZVNwSJ:sQ*F9[(DL01
     ZL245A8  C2018 06 14.16633 16 36 28.65 +58 19 35.8          19.5 GUNEOCPI52
     ZL245A8  C2018 06 14.16692 16 36 28.49 +58 19 34.6          19.6 GUNEOCPI52
     ZL245A8  C2018 06 14.16943 16 36 28.02 +58 19 30.5          19.1 GUNEOCPI52
     ZL245A8  C2018 06 14.17148 16 36 27.58 +58 19 26.6          18.8 GUNEOCPI52
     ZL245A8  C2018 06 145JV$itQqy\5tdb0MCredacted;gUtt4G1rmKSvIh%liSx:S4O'y8I41
     ZL245A8 KC2018 06 148L5Y(/-bxUMpHRJxV8x[_g5][Bq1IJ#;Q8t3!(Oy]p_/t^e2\FK$H36
     ZL245A8  C2018 06 145b_W4J[^'v5squSQNj.DO=g(+$(V\?AOSFdkMa[G2]ve5J/Co8`gI41
     ZL245A8 KC2018 06 14BL*J)fBaL/a65Q[6c?2(.\kQ+*kM03yn7\4Z8u,G]vLN7bk0tNV?H36
     ZL245A8 KC2018 06 14I#:i3'h[?%oy=E_e\5g.cXJ/ix7-.0WJ4K9GS\]raRK$QdC3ydu=H21
     ZL245A8 KC2018 06 14Cy2w=?,MPVaJc/,F'GR,%*pIqo3Gf0FlBD/*7F`xHd;WJ;8qnDwRH36
     ZL245A8  C2018 06 14n#gJ*xqwto`jyw79P9XkK(acTUb+aV+dtLi%J:Vycib:UDtg5EpvI41
     ZL245A8 KC2018 06 14b$+J/F[ne/@ThEnDD1;3sUn(yBphg@?OD$T-%5!jxAxg@F1dWLR*H21
     ZL245A8 KC2018 06 14[f4B\W/VP8T.la3[b#Z^UG$!2CX9uNu)=q?tvJrP2?lFT#4lY5K4H21
     ZL245A8  C2018 06 14Hnm;Ccil,i2Zo.^A8q`*=a9@O_Se0h3X5(!xqskXb#81eQSWH9b?I41
     ZL245A8 KC2018 06 14TU9*:moK[\)J_H5XmGAJ:R5k_Gmy/2-K7Xr`]-vgW:LZ*^MQ%xE2587
     ZL245A8 KC2018 06 14gjq4]JwIX;OIN!01/`R@!X+=N6v6.mZ\*3Ab)p2WLvh[6A!7Svp*587
     ZL245A8 KC2018 06 14gmdWUW]5mU@'w\0GHAsD/.5*dL^@#.JDU4!1E8FmnfNE#8FKYtJB587
     ZL245A8 KC2018 06 14(_'le?2hM62)$3n$L:Kt[y?^7?cJ93lvseerMB^lUtEmW$ZK\`?-204
     ZL245A8 HC2018 06 14ZT`S8Qs!fiGbbu+g:;9srqTCS:=`Oq\dQ/@Rv/8KOCKp7,2+Y*g(204
     ZL245A8 KC2018 06 14V\yp1pqmZHWUSd/k5^iaTZG@e%hn-D*`n;Veb74?kiLURrk6;,Du204
     ZL245A8 KC2018 06 15Sea3j)[Q'e7uZmaw^Op*rw_Jo*`0j*_wI19)Fj02[,FOmCgvnqnkJ77
     ZL245A8 KC2018 06 15W:;XJ,c)fdnYm;JX'+dM41KasMUd^MX_(`!EiA/^!WS%5Z0Say2UJ77
     ZL245A8 KC2018 06 15%_(Z#ga[AFc'!cpwr.xOa#Agq)@iounUX(2Ein@i1GEtqBmtvAQoJ77
     ZL245A8 KC2018 06 15.03548 16 33 30.59 +57 50 38.8                VNEOCPJ95
     ZL245A8 KC2018 06 15.03953 16 33 29.70 +57 50 31.0                VNEOCPJ95
     ZL245A8 KC2018 06 15c@F90oh$$F-7EP+etf?7^;^54_f]^$w4rflP2yg2*Lw$CdC4^r@MJ77
     ZL245A8 KC2018 06 15.04362 16 33 28.76 +57 50 22.3          19.9 GVNEOCPJ95
     ZL245A8  C2018 06 15.21383 16 32 55.68 +57 44 32.6          19.7 GUNEOCPI52
     ZL245A8  C2018 06 15.21436 16 32 55.54 +57 44 31.6          18.9 GUNEOCPI52
     ZL245A8 KC2018 06 15`%9D(Q^O6Vo\-[6Nm@UExxcA2eY^+,DdyBFPD+Y4aNqH0aQW',%*104
     ZL245A8 KC2018 06 16e*3T5sxrus+\.GdYIN@,!,bZj(Z`2m:H@m8hnabPI/;\XiYOW?87104
     ZL245A8 KC2018 06 16d@KJRr?T820*TgyoOOs^jUp42)ciI![gu,k(%0\=vmH*4GcPMGu(104
     ZL245A8  C2018 06 16=/:Gr^JN?k#K\+*mhHC5JNIq(fGU3B]*+R+Xj/,/c4]o?*7gMLk!P93
     ZL245A8  C2018 06 16Ob);c8(`vfE(L#r5c[6MoMB41YU^_F:hbw)6eff+en1i@GR!7YpdP93
     ZL245A8  C2018 06 16!_u4n3s;MaW%D]oc#[oi)Z2I'dJDt(yYW4NkaCrITQGlF1oNEOCPP93

Station data:
(104) San Marcello Pistoiese  (N44.063037 E10.804200)  Italy. 0.40-m f/5
   reflector.
(204) Schiaparelli Observatory  (N45.867933 E8.770800)  Italy.  Observer L.
   Buzzi. 0.60-m f/4.64 Newtonian + CCD.
(587) Sormano  (N45.882949 E9.229180)  Italy.  Observers F. Manca, A. Testa.
   Measurer F. Manca. 0.5-m + CCD.
(703) Catalina Sky Survey  (N32.417006 W110.732640)  US/Arizona.  Observers
   B. M. Africano, E. J. Christensen, D. C. Fuls, A. R. Gibbs, A. D. Grauer,
   J. A. Johnson, R. A. Kowalski, S. M. Larson, G. J. Leonard, R. L. Seaman,
   F. C. Shelly. 0.68 m Schmidt + 10K CCD.
(F51) Pan-STARRS 1, Haleakala  (N20.707235 W156.255910)  US/Hawaii.
   Observers N. Primak, A. Schultz, S. Watters, J. Thiel, T. Goggia. Measurer
   PS1 Science Consortium. 1.8-m Ritchey-Chrétien + CCD.
(G58) Chabot Observatory  (N37.819331 W122.182000)
   US/California.  Observer G. McKeegan. 0.9-m f/4.5 Schmidt-Cassegrain + CCD.
(H21) Astronomical Research Observatory, Westfield  (N39.483057 W87.968270)
   US/Illinois. 0.76-m f/3.0 astrograph + CCD.
(H36) Sandlot Observatory, Scranton  (N38.797693 W95.706400)  US/Kansas.
   Observer G. Hug. 0.56-m reflector + CCD.
(I41) Palomar Mountain--ZTF  (N33.357340 W116.859780)  US/California. 1.2-m
   f/2.44 Oschin Schmidt + CCD.
(I52) Steward Observatory, Mt. Lemmon Station  (N32.442547 W110.788920)
   US/Arizona.  Observers B. M. Africano, E. J. Christensen, D. C. Fuls, A.
   R. Gibbs, A. D. Grauer, J. A. Johnson, R. A. Kowalski, S. M. Larson, G. J.
   Leonard, R. L. Seaman, F. C. Shelly. 1.0-m reflector + CCD.
(J04) ESA Optical Ground Station, Tenerife  (N28.300924 W16.511830)  Canary
   Islands (Spain).  Observer D. Abreu. Measurers M. Micheli, D. Koschny, E.
   Schwab, M. Busch, A. Knöfel. 1.0-m f/4.4 reflector + CCD.
(J77) Golden Hill Observatory, Stourton Caundle  (N50.930949 W2.405300)  UK.
   Observer R. Miles. 0.28-m f/10 Schmidt-Cassegrain + CCD.
(J95) Great Shefford  (N51.474969 W1.447003)  UK.  Observer P. Birtwhistle.
   0.40-m f/6.0 Schmidt-Cassegrain + CCD.
(L01) Višnjan Observatory, Tičan  (N45.290900 E13.749300)  Croatia.  Observer
   K. Korlević. 1.0-m f/2.9 reflector + CCD.
(P93) Space Tracking and Communications Center, JAXA  (N34.672353
   E133.544330)  Japan.

Orbital elements:  ZL245A8
   Perihelion 2018 Jul 9.550066 +/- 0.00143 TT = 13:12:05 (JD 2458309.050066)
Epoch 2018 Jun 16.0 TT = JDT 2458285.5   Earth MOID: 0.0472   Ju: 0.6517
M 355.02828 +/- 0.013               (J2000 ecliptic)          AutoNEOCP
n   0.21111249 +/- 0.000561         Peri.  181.02947 +/- 0.0022
a   2.79335901 +/- 0.00496          Node   100.75642 +/- 0.0021
e   0.6191689 +/- 0.000663          Incl.   41.05669 +/- 0.015
P   4.67                   H 20.0   G  0.15   U  7.7  
q 1.06379791 +/- 3.33e-5    Q 4.52292012 +/- 0.00983
From 65 observations 2018 May 19-June 16; mean residual 0".33
Residuals in arcseconds: 
180519 F51  .14+  .06-    180613 G58  .62+  .05+    180614 587  .05-  .43+    
180519 F51  .14-  .09+    180613 I52  .06+  .29-    180614 587  .69+  .51+    
180519 F51  .01+  .03+    180613 I52  .10+  .25+    180614 587  .61+  .24-    
180519 F51  .00   .03-    180613 I52  .23+  .27+    180614 204  .11-  .10+    
180612 703  .85+  .19-    180613 I52  .66+  .21+    180614 204  .07-  .35-    
180612 703  .05-  .28-    180613 L01  .01+  .45+    180614 204  .07+  .35-    
180612 703  1.2-  .36-    180613 L01  .15+  .05-    180615 J77  .17-  .03+    
180612 703  .89-  .60-    180613 L01  .02-  .12-    180615 J77  .17+  .19-    
180612 I52  .39+  .25+    180614 I52  .20-  .17-    180615 J77  .31+  .08+    
180612 I52  .38+  .33+    180614 I52  .48-  .29-    180615 J95  .13+  .32-    
180612 I52  .30+  .04+    180614 I52  .02+  .20+    180615 J95  .04+  .48+    
180612 I52  .29+  .12+    180614 I52  .01-  .06+    180615 J77  .15+  .27-    
180612 J04  .10-  .57-    180614 I41  .28-  .41-    180615 J95  .38-  .48+    
180612 J04  .38-  .57-    180614 H36  .33-  .18-    180615 I52  .07-  .24-    
180612 J04  .20+  .29-    180614 I41  .51-  .36-    180615 I52  .25-  .13-    
180613 J95  .21+  .07+    180614 H36  .13-  .01-    180615 104  .00   .52-    
180613 J95  .41-  .28-    180614 H21  .27+  .18-    180616 104  .23-  .38-    
180613 L01  .21+  .23+    180614 H36  .63+  .11-    180616 104  .01+  .62-    
180613 J95  .22+  .33+    180614 I41  .21-  .28-    180616 P93  .71+  .09-    
180613 L01  .03+  .34+    180614 H21  .02+  .08-    180616 P93  .15-  .03-    
180613 G58  .34-  .54+    180614 H21  .02-  .27-    180616 P93  .08-  .14+    
